Wetterdaten: Freitag, 25.11.2011
Datum Zeit Temp. A. Feuchte A. Luftdruck Regen Wind Richtung Richtung Sonnenschein UV Solar Windben
25.11.2011 00:00 3,8 C 88 % 1027,4 hPa 0,0 mm 0,0 km/h (0 Bft) W-SW 247 0 min 0 UV-I 0 W/m 1,6 km/h (1 Bft)
25.11.2011 00:10 3,7 C 88 % 1027,3 hPa 0,0 mm 0,0 km/h (0 Bft) W-SW 247 0 min 0 UV-I 0 W/m 1,6 km/h (1 Bft)
25.11.2011 00:20 3,6 C 88 % 1027,2 hPa 0,0 mm 0,0 km/h (0 Bft) W-SW 247 0 min 0 UV-I 0 W/m 3,2 km/h (1 Bft)
25.11.2011 00:30 3,7 C 89 % 1027,2 hPa 0,0 mm 0,0 km/h (0 Bft) W-SW 247 0 min 0 UV-I 0 W/m 6,4 km/h (2 Bft)
25.11.2011 00:40 3,8 C 89 % 1027,2 hPa 0,0 mm 0,0 km/h (0 Bft) SW 225 0 min 0 UV-I 0 W/m 8,0 km/h (2 Bft)
25.11.2011 00:50 3,9 C 89 % 1027,1 hPa 0,0 mm 0,0 km/h (0 Bft) SW 225 0 min 0 UV-I 0 W/m 3,2 km/h (1 Bft)
25.11.2011 01:00 4,1 C 89 % 1027,1 hPa 0,0 mm 1,6 km/h (1 Bft) SW 225 0 min 0 UV-I 0 W/m 6,4 km/h (2 Bft)
25.11.2011 01:10 4,2 C 89 % 1027,0 hPa 0,0 mm 0,0 km/h (0 Bft) SW 225 0 min 0 UV-I 0 W/m 4,8 km/h (1 Bft)
25.11.2011 01:20 4,2 C 89 % 1026,9 hPa 0,0 mm 1,6 km/h (1 Bft) SW 225 0 min 0 UV-I 0 W/m 6,4 km/h (2 Bft)
25.11.2011 01:30 4,3 C 89 % 1026,9 hPa 0,0 mm 0,0 km/h (0 Bft) SW 225 0 min 0 UV-I 0 W/m 6,4 km/h (2 Bft)
25.11.2011 01:40 4,3 C 88 % 1026,7 hPa 0,0 mm 1,6 km/h (1 Bft) SW 225 0 min 0 UV-I 0 W/m 8,0 km/h (2 Bft)
25.11.2011 01:50 4,3 C 88 % 1026,7 hPa 0,0 mm 0,0 km/h (0 Bft) SW 225 0 min 0 UV-I 0 W/m 6,4 km/h (2 Bft)
25.11.2011 02:00 4,3 C 88 % 1026,6 hPa 0,0 mm 0,0 km/h (0 Bft) SW 225 0 min 0 UV-I 0 W/m 6,4 km/h (2 Bft)
25.11.2011 02:10 4,3 C 88 % 1026,7 hPa 0,0 mm 1,6 km/h (1 Bft) SW 225 0 min 0 UV-I 0 W/m 9,7 km/h (2 Bft)
25.11.2011 02:20 4,4 C 87 % 1026,4 hPa 0,0 mm 1,6 km/h (1 Bft) SW 225 0 min 0 UV-I 0 W/m 6,4 km/h (2 Bft)
25.11.2011 02:30 4,4 C 87 % 1026,2 hPa 0,0 mm 1,6 km/h (1 Bft) SW 225 0 min 0 UV-I 0 W/m 14,5 km/h (3 Bft)
25.11.2011 02:40 4,4 C 86 % 1026,2 hPa 0,0 mm 1,6 km/h (1 Bft) S 180 0 min 0 UV-I 0 W/m 4,8 km/h (1 Bft)
25.11.2011 02:50 4,4 C 86 % 1026,0 hPa 0,0 mm 1,6 km/h (1 Bft) S 180 0 min 0 UV-I 0 W/m 8,0 km/h (2 Bft)
25.11.2011 03:00 4,3 C 86 % 1026,0 hPa 0,0 mm 1,6 km/h (1 Bft) S 180 0 min 0 UV-I 0 W/m 6,4 km/h (2 Bft)
25.11.2011 03:10 4,3 C 85 % 1025,9 hPa 0,0 mm 0,0 km/h (0 Bft) S 180 0 min 0 UV-I 0 W/m 8,0 km/h (2 Bft)
25.11.2011 03:20 4,2 C 85 % 1025,7 hPa 0,0 mm 0,0 km/h (0 Bft) S 180 0 min 0 UV-I 0 W/m 4,8 km/h (1 Bft)
25.11.2011 03:30 4,1 C 85 % 1025,7 hPa 0,0 mm 0,0 km/h (0 Bft) S 180 0 min 0 UV-I 0 W/m 3,2 km/h (1 Bft)
25.11.2011 03:40 4,0 C 84 % 1025,6 hPa 0,0 mm 0,0 km/h (0 Bft) S 180 0 min 0 UV-I 0 W/m 6,4 km/h (2 Bft)
25.11.2011 03:50 3,8 C 84 % 1025,4 hPa 0,0 mm 0,0 km/h (0 Bft) S 180 0 min 0 UV-I 0 W/m 4,8 km/h (1 Bft)
25.11.2011 04:00 3,7 C 84 % 1025,2 hPa 0,0 mm 0,0 km/h (0 Bft) S 180 0 min 0 UV-I 0 W/m 3,2 km/h (1 Bft)
25.11.2011 04:10 3,6 C 84 % 1025,2 hPa 0,0 mm 0,0 km/h (0 Bft) S 180 0 min 0 UV-I 0 W/m 4,8 km/h (1 Bft)
25.11.2011 04:20 3,5 C 84 % 1025,1 hPa 0,0 mm 0,0 km/h (0 Bft) S 180 0 min 0 UV-I 0 W/m 1,6 km/h (1 Bft)
25.11.2011 04:30 3,3 C 84 % 1025,0 hPa 0,0 mm 0,0 km/h (0 Bft) S 180 0 min 0 UV-I 0 W/m 8,0 km/h (2 Bft)
25.11.2011 04:40 3,2 C 84 % 1025,0 hPa 0,0 mm 0,0 km/h (0 Bft) S 180 0 min 0 UV-I 0 W/m 3,2 km/h (1 Bft)
25.11.2011 04:50 3,1 C 84 % 1025,0 hPa 0,0 mm 0,0 km/h (0 Bft) S 180 0 min 0 UV-I 0 W/m 3,2 km/h (1 Bft)
25.11.2011 05:00 3,1 C 84 % 1025,0 hPa 0,0 mm 0,0 km/h (0 Bft) S 180 0 min 0 UV-I 0 W/m 4,8 km/h (1 Bft)
25.11.2011 05:10 3,1 C 84 % 1025,1 hPa 0,0 mm 0,0 km/h (0 Bft) S 180 0 min 0 UV-I 0 W/m 3,2 km/h (1 Bft)
25.11.2011 05:20 3,0 C 84 % 1025,1 hPa 0,0 mm 0,0 km/h (0 Bft) S 180 0 min 0 UV-I 0 W/m 1,6 km/h (1 Bft)
25.11.2011 05:30 3,0 C 84 % 1024,8 hPa 0,0 mm 0,0 km/h (0 Bft) S 180 0 min 0 UV-I 0 W/m 3,2 km/h (1 Bft)
25.11.2011 05:40 2,9 C 84 % 1024,8 hPa 0,0 mm 0,0 km/h (0 Bft) S 180 0 min 0 UV-I 0 W/m 3,2 km/h (1 Bft)
25.11.2011 05:50 2,9 C 84 % 1025,0 hPa 0,0 mm 0,0 km/h (0 Bft) S 180 0 min 0 UV-I 0 W/m 4,8 km/h (1 Bft)
25.11.2011 06:00 2,9 C 84 % 1024,9 hPa 0,0 mm 0,0 km/h (0 Bft) S 180 0 min 0 UV-I 0 W/m 6,4 km/h (2 Bft)
25.11.2011 06:10 2,9 C 84 % 1025,0 hPa 0,0 mm 0,0 km/h (0 Bft) S 180 0 min 0 UV-I 0 W/m 4,8 km/h (1 Bft)
25.11.2011 06:20 2,9 C 84 % 1024,8 hPa 0,0 mm 0,0 km/h (0 Bft) S 180 0 min 0 UV-I 0 W/m 6,4 km/h (2 Bft)
25.11.2011 06:30 2,9 C 83 % 1024,7 hPa 0,0 mm 0,0 km/h (0 Bft) S 180 0 min 0 UV-I 0 W/m 4,8 km/h (1 Bft)
25.11.2011 06:40 2,9 C 83 % 1024,6 hPa 0,0 mm 0,0 km/h (0 Bft) S 180 0 min 0 UV-I 0 W/m 3,2 km/h (1 Bft)
25.11.2011 06:50 2,8 C 83 % 1024,7 hPa 0,0 mm 0,0 km/h (0 Bft) S 180 0 min 0 UV-I 0 W/m 1,6 km/h (1 Bft)
25.11.2011 07:00 2,7 C 82 % 1024,7 hPa 0,0 mm 0,0 km/h (0 Bft) S 180 0 min 0 UV-I 0 W/m 1,6 km/h (1 Bft)
25.11.2011 07:10 2,6 C 82 % 1024,6 hPa 0,0 mm 0,0 km/h (0 Bft) S 180 0 min 0 UV-I 0 W/m 3,2 km/h (1 Bft)
25.11.2011 07:20 2,4 C 82 % 1024,6 hPa 0,0 mm 0,0 km/h (0 Bft) S 180 0 min 0 UV-I 0 W/m 4,8 km/h (1 Bft)
25.11.2011 07:30 2,2 C 83 % 1024,6 hPa 0,0 mm 0,0 km/h (0 Bft) S 180 0 min 0 UV-I 0 W/m 6,4 km/h (2 Bft)
25.11.2011 07:40 2,2 C 83 % 1024,4 hPa 0,0 mm 1,6 km/h (1 Bft) S 180 0 min 0 UV-I 0 W/m 6,4 km/h (2 Bft)
25.11.2011 07:50 2,2 C 83 % 1024,4 hPa 0,0 mm 1,6 km/h (1 Bft) S 180 0 min 0 UV-I 0 W/m 14,5 km/h (3 Bft)
25.11.2011 08:00 2,3 C 82 % 1024,3 hPa 0,0 mm 1,6 km/h (1 Bft) S 172 0 min 0 UV-I 0 W/m 4,8 km/h (1 Bft)
25.11.2011 08:10 2,4 C 82 % 1024,3 hPa 0,0 mm 0,0 km/h (0 Bft) S 180 0 min 0 UV-I 7 W/m 4,8 km/h (1 Bft)
25.11.2011 08:20 2,5 C 82 % 1024,4 hPa 0,0 mm 0,0 km/h (0 Bft) S 180 0 min 0 UV-I 14 W/m 6,4 km/h (2 Bft)
25.11.2011 08:30 2,6 C 81 % 1024,5 hPa 0,0 mm 0,0 km/h (0 Bft) S 180 0 min 0 UV-I 19 W/m 8,0 km/h (2 Bft)
25.11.2011 08:40 2,7 C 81 % 1024,7 hPa 0,0 mm 0,0 km/h (0 Bft) S 180 0 min 0 UV-I 25 W/m 4,8 km/h (1 Bft)
25.11.2011 08:50 2,8 C 80 % 1024,6 hPa 0,0 mm 0,0 km/h (0 Bft) S 180 0 min 0 UV-I 32 W/m 4,8 km/h (1 Bft)
25.11.2011 09:00 2,9 C 80 % 1024,4 hPa 0,0 mm 0,0 km/h (0 Bft) S 180 0 min 0 UV-I 39 W/m 4,8 km/h (1 Bft)
25.11.2011 09:10 3,2 C 79 % 1024,1 hPa 0,0 mm 0,0 km/h (0 Bft) S 180 0 min 0 UV-I 39 W/m 6,4 km/h (2 Bft)
25.11.2011 09:20 3,3 C 79 % 1023,8 hPa 0,0 mm 0,0 km/h (0 Bft) S 180 0 min 0 UV-I 49 W/m 4,8 km/h (1 Bft)
25.11.2011 09:30 3,6 C 78 % 1024,2 hPa 0,0 mm 0,0 km/h (0 Bft) S 180 0 min 0 UV-I 62 W/m 4,8 km/h (1 Bft)
25.11.2011 09:40 3,7 C 78 % 1024,2 hPa 0,0 mm 0,0 km/h (0 Bft) S 180 0 min 0 UV-I 69 W/m 1,6 km/h (1 Bft)
25.11.2011 09:50 3,9 C 78 % 1024,2 hPa 0,0 mm 0,0 km/h (0 Bft) S 180 0 min 0 UV-I 81 W/m 1,6 km/h (1 Bft)
25.11.2011 10:00 4,4 C 78 % 1024,1 hPa 0,0 mm 0,0 km/h (0 Bft) S 180 0 min 0 UV-I 95 W/m 1,6 km/h (1 Bft)
25.11.2011 10:10 5,3 C 74 % 1024,0 hPa 0,0 mm 0,0 km/h (0 Bft) S 180 0 min 0 UV-I 90 W/m 3,2 km/h (1 Bft)
25.11.2011 10:20 5,7 C 75 % 1024,0 hPa 0,0 mm 0,0 km/h (0 Bft) S 180 10 min 1 UV-I 142 W/m 3,2 km/h (1 Bft)
25.11.2011 10:30 6,1 C 73 % 1023,9 hPa 0,0 mm 0,0 km/h (0 Bft) S 180 0 min 1 UV-I 120 W/m 1,6 km/h (1 Bft)
25.11.2011 10:40 6,6 C 71 % 1023,9 hPa 0,0 mm 0,1 km/h (0 Bft) S 172 0 min 1 UV-I 122 W/m 1,6 km/h (1 Bft)
25.11.2011 10:50 6,9 C 69 % 1023,9 hPa 0,0 mm 0,0 km/h (0 Bft) S 172 0 min 1 UV-I 121 W/m 1,6 km/h (1 Bft)
25.11.2011 11:00 7,1 C 70 % 1023,8 hPa 0,0 mm 0,0 km/h (0 Bft) S 172 0 min 1 UV-I 110 W/m 0,0 km/h (0 Bft)
25.11.2011 11:10 7,0 C 71 % 1023,6 hPa 0,0 mm 0,0 km/h (0 Bft) S 172 0 min 1 UV-I 85 W/m 0,0 km/h (0 Bft)
25.11.2011 11:20 6,8 C 72 % 1023,7 hPa 0,0 mm 0,0 km/h (0 Bft) S 172 0 min 0 UV-I 57 W/m 1,6 km/h (1 Bft)
25.11.2011 11:30 6,8 C 74 % 1023,4 hPa 0,0 mm 0,0 km/h (0 Bft) S 172 0 min 0 UV-I 123 W/m 1,6 km/h (1 Bft)
25.11.2011 11:40 7,7 C 69 % 1023,6 hPa 0,0 mm 0,0 km/h (0 Bft) S 172 10 min 1 UV-I 256 W/m 0,0 km/h (0 Bft)
25.11.2011 11:50 8,0 C 69 % 1023,4 hPa 0,0 mm 0,1 km/h (0 Bft) S 172 10 min 1 UV-I 233 W/m 3,2 km/h (1 Bft)
25.11.2011 12:00 8,8 C 66 % 1023,1 hPa 0,0 mm 0,4 km/h (0 Bft) S 172 10 min 1 UV-I 275 W/m 8,0 km/h (2 Bft)
25.11.2011 12:10 9,4 C 66 % 1023,1 hPa 0,0 mm 0,8 km/h (0 Bft) S 172 10 min 1 UV-I 235 W/m 4,8 km/h (1 Bft)
25.11.2011 12:20 10,1 C 65 % 1023,0 hPa 0,0 mm 3,0 km/h (1 Bft) S-SW 199 10 min 1 UV-I 261 W/m 12,9 km/h (3 Bft)
25.11.2011 12:30 10,6 C 65 % 1022,7 hPa 0,0 mm 4,7 km/h (1 Bft) S-SW 211 10 min 1 UV-I 234 W/m 16,1 km/h (3 Bft)
25.11.2011 12:40 10,9 C 65 % 1022,5 hPa 0,0 mm 4,0 km/h (1 Bft) SW 217 10 min 1 UV-I 273 W/m 14,5 km/h (3 Bft)
25.11.2011 12:50 10,8 C 66 % 1022,5 hPa 0,0 mm 4,4 km/h (1 Bft) SW 226 0 min 1 UV-I 120 W/m 16,1 km/h (3 Bft)
25.11.2011 13:00 10,8 C 66 % 1022,3 hPa 0,0 mm 4,3 km/h (1 Bft) W-SW 238 0 min 1 UV-I 105 W/m 16,1 km/h (3 Bft)
25.11.2011 13:10 10,8 C 67 % 1022,0 hPa 0,0 mm 3,3 km/h (1 Bft) W-SW 245 0 min 0 UV-I 67 W/m 16,1 km/h (3 Bft)
25.11.2011 13:20 10,8 C 68 % 1021,8 hPa 0,0 mm 4,2 km/h (1 Bft) SW 230 0 min 1 UV-I 80 W/m 16,1 km/h (3 Bft)
25.11.2011 13:30 10,8 C 68 % 1021,7 hPa 0,0 mm 1,5 km/h (1 Bft) SW 230 0 min 0 UV-I 50 W/m 9,7 km/h (2 Bft)
25.11.2011 13:40 10,8 C 69 % 1022,0 hPa 0,0 mm 1,5 km/h (1 Bft) SW 230 0 min 0 UV-I 44 W/m 8,0 km/h (2 Bft)
25.11.2011 13:50 10,7 C 70 % 1021,9 hPa 0,0 mm 1,3 km/h (1 Bft) SW 230 0 min 0 UV-I 35 W/m 9,7 km/h (2 Bft)
25.11.2011 14:00 10,6 C 70 % 1021,7 hPa 0,0 mm 0,6 km/h (0 Bft) SW 230 0 min 0 UV-I 33 W/m 8,0 km/h (2 Bft)
25.11.2011 14:10 10,7 C 70 % 1021,7 hPa 0,0 mm 2,6 km/h (1 Bft) SW 232 0 min 0 UV-I 37 W/m 9,7 km/h (2 Bft)
25.11.2011 14:20 10,7 C 70 % 1021,6 hPa 0,0 mm 3,2 km/h (1 Bft) SW 236 0 min 0 UV-I 28 W/m 11,3 km/h (2 Bft)
25.11.2011 14:30 10,6 C 71 % 1021,6 hPa 0,0 mm 3,9 km/h (1 Bft) W-SW 237 0 min 0 UV-I 15 W/m 14,5 km/h (3 Bft)
25.11.2011 14:40 10,4 C 73 % 1021,8 hPa 0,3 mm 7,5 km/h (2 Bft) W-SW 253 0 min 0 UV-I 14 W/m 24,1 km/h (4 Bft)
25.11.2011 14:50 9,6 C 79 % 1022,0 hPa 0,0 mm 3,5 km/h (1 Bft) W-SW 244 0 min 0 UV-I 14 W/m 12,9 km/h (3 Bft)
25.11.2011 15:00 8,9 C 83 % 1021,9 hPa 0,0 mm 3,1 km/h (1 Bft) W-SW 248 0 min 0 UV-I 8 W/m 12,9 km/h (3 Bft)
25.11.2011 15:10 8,6 C 85 % 1021,9 hPa 0,0 mm 3,7 km/h (1 Bft) W-SW 249 0 min 0 UV-I 7 W/m 9,7 km/h (2 Bft)
25.11.2011 15:20 8,4 C 86 % 1022,1 hPa 0,3 mm 3,2 km/h (1 Bft) W-SW 249 0 min 0 UV-I 3 W/m 11,3 km/h (2 Bft)
25.11.2011 15:30 8,3 C 87 % 1022,1 hPa 0,0 mm 3,7 km/h (1 Bft) W-SW 257 0 min 0 UV-I 0 W/m 12,9 km/h (3 Bft)
25.11.2011 15:40 8,3 C 87 % 1022,1 hPa 0,3 mm 3,8 km/h (1 Bft) W-SW 255 0 min 0 UV-I 0 W/m 9,7 km/h (2 Bft)
25.11.2011 15:50 8,3 C 88 % 1022,2 hPa 0,0 mm 3,2 km/h (1 Bft) W-SW 247 0 min 0 UV-I 0 W/m 9,7 km/h (2 Bft)
25.11.2011 16:00 8,3 C 88 % 1022,3 hPa 0,0 mm 4,8 km/h (1 Bft) W-SW 247 0 min 0 UV-I 0 W/m 11,3 km/h (2 Bft)
25.11.2011 16:10 8,2 C 88 % 1022,3 hPa 0,0 mm 3,2 km/h (1 Bft) W-SW 247 0 min 0 UV-I 0 W/m 9,7 km/h (2 Bft)
25.11.2011 16:20 8,2 C 88 % 1022,3 hPa 0,0 mm 3,2 km/h (1 Bft) W-SW 247 0 min 0 UV-I 0 W/m 11,3 km/h (2 Bft)
25.11.2011 16:30 8,2 C 89 % 1022,5 hPa 0,0 mm 3,2 km/h (1 Bft) W-SW 247 0 min 0 UV-I 0 W/m 11,3 km/h (2 Bft)
25.11.2011 16:40 8,1 C 89 % 1022,7 hPa 0,0 mm 4,8 km/h (1 Bft) W-SW 247 0 min 0 UV-I 0 W/m 14,5 km/h (3 Bft)
25.11.2011 16:50 8,1 C 89 % 1022,7 hPa 0,0 mm 4,8 km/h (1 Bft) W-SW 247 0 min 0 UV-I 0 W/m 16,1 km/h (3 Bft)
25.11.2011 17:00 8,1 C 90 % 1022,7 hPa 0,3 mm 4,8 km/h (1 Bft) W-SW 247 0 min 0 UV-I 0 W/m 16,1 km/h (3 Bft)
25.11.2011 17:10 8,2 C 90 % 1023,0 hPa 0,3 mm 9,7 km/h (2 Bft) W-SW 247 0 min 0 UV-I 0 W/m 22,5 km/h (4 Bft)
25.11.2011 17:20 8,1 C 90 % 1023,1 hPa 0,0 mm 8,0 km/h (2 Bft) W 270 0 min 0 UV-I 0 W/m 20,9 km/h (4 Bft)
25.11.2011 17:30 8,1 C 90 % 1023,3 hPa 0,0 mm 9,7 km/h (2 Bft) W 270 0 min 0 UV-I 0 W/m 29,0 km/h (5 Bft)
25.11.2011 17:40 8,0 C 90 % 1023,2 hPa 0,0 mm 9,7 km/h (2 Bft) W 270 0 min 0 UV-I 0 W/m 22,5 km/h (4 Bft)
25.11.2011 17:50 7,9 C 90 % 1023,5 hPa 0,0 mm 8,0 km/h (2 Bft) W 270 0 min 0 UV-I 0 W/m 24,1 km/h (4 Bft)
25.11.2011 18:00 7,8 C 90 % 1023,4 hPa 0,0 mm 9,7 km/h (2 Bft) W-SW 247 0 min 0 UV-I 0 W/m 24,1 km/h (4 Bft)
25.11.2011 18:10 7,7 C 90 % 1023,5 hPa 0,0 mm 8,0 km/h (2 Bft) W-SW 247 0 min 0 UV-I 0 W/m 22,5 km/h (4 Bft)
25.11.2011 18:20 7,7 C 91 % 1023,5 hPa 0,0 mm 11,3 km/h (2 Bft) W 270 0 min 0 UV-I 0 W/m 29,0 km/h (5 Bft)
25.11.2011 18:30 7,7 C 91 % 1023,5 hPa 0,0 mm 8,0 km/h (2 Bft) W-SW 247 0 min 0 UV-I 0 W/m 29,0 km/h (5 Bft)
25.11.2011 18:40 7,7 C 91 % 1023,6 hPa 0,0 mm 9,7 km/h (2 Bft) W-SW 247 0 min 0 UV-I 0 W/m 22,5 km/h (4 Bft)
25.11.2011 18:50 7,6 C 91 % 1023,5 hPa 0,0 mm 9,7 km/h (2 Bft) W-SW 247 0 min 0 UV-I 0 W/m 24,1 km/h (4 Bft)
25.11.2011 19:00 7,6 C 91 % 1023,6 hPa 0,0 mm 11,3 km/h (2 Bft) W-SW 247 0 min 0 UV-I 0 W/m 24,1 km/h (4 Bft)
25.11.2011 19:10 7,6 C 91 % 1023,8 hPa 0,0 mm 8,0 km/h (2 Bft) W-SW 247 0 min 0 UV-I 0 W/m 20,9 km/h (4 Bft)
25.11.2011 19:20 7,6 C 91 % 1024,0 hPa 0,0 mm 8,0 km/h (2 Bft) W-SW 247 0 min 0 UV-I 0 W/m 17,7 km/h (3 Bft)
25.11.2011 19:30 7,6 C 91 % 1024,1 hPa 0,0 mm 8,0 km/h (2 Bft) W 270 0 min 0 UV-I 0 W/m 20,9 km/h (4 Bft)
25.11.2011 19:40 7,6 C 91 % 1023,8 hPa 0,0 mm 4,8 km/h (1 Bft) W-SW 247 0 min 0 UV-I 0 W/m 16,1 km/h (3 Bft)
25.11.2011 19:50 7,6 C 91 % 1023,9 hPa 0,0 mm 4,8 km/h (1 Bft) SW 225 0 min 0 UV-I 0 W/m 17,7 km/h (3 Bft)
25.11.2011 20:00 7,7 C 91 % 1024,0 hPa 0,0 mm 8,0 km/h (2 Bft) W-SW 247 0 min 0 UV-I 0 W/m 22,5 km/h (4 Bft)
25.11.2011 20:10 7,7 C 91 % 1024,2 hPa 0,0 mm 8,0 km/h (2 Bft) W-SW 247 0 min 0 UV-I 0 W/m 22,5 km/h (4 Bft)
25.11.2011 20:20 7,7 C 91 % 1024,2 hPa 0,0 mm 6,4 km/h (2 Bft) SW 225 0 min 0 UV-I 0 W/m 19,3 km/h (3 Bft)
25.11.2011 20:30 7,7 C 91 % 1024,0 hPa 0,0 mm 4,8 km/h (1 Bft) W-SW 247 0 min 0 UV-I 0 W/m 14,5 km/h (3 Bft)
25.11.2011 20:40 7,7 C 91 % 1024,1 hPa 0,0 mm 6,4 km/h (2 Bft) W-SW 247 0 min 0 UV-I 0 W/m 20,9 km/h (4 Bft)
25.11.2011 20:50 7,7 C 91 % 1024,1 hPa 0,0 mm 6,4 km/h (2 Bft) W-SW 247 0 min 0 UV-I 0 W/m 16,1 km/h (3 Bft)
25.11.2011 21:00 7,7 C 91 % 1024,3 hPa 0,0 mm 6,4 km/h (2 Bft) W-SW 247 0 min 0 UV-I 0 W/m 19,3 km/h (3 Bft)
25.11.2011 21:10 7,7 C 91 % 1024,2 hPa 0,0 mm 8,0 km/h (2 Bft) W-SW 247 0 min 0 UV-I 0 W/m 25,7 km/h (4 Bft)
25.11.2011 21:20 7,8 C 91 % 1024,3 hPa 0,0 mm 8,0 km/h (2 Bft) W-SW 247 0 min 0 UV-I 0 W/m 22,5 km/h (4 Bft)
25.11.2011 21:30 7,8 C 91 % 1024,3 hPa 0,0 mm 8,0 km/h (2 Bft) W-SW 247 0 min 0 UV-I 0 W/m 24,1 km/h (4 Bft)
25.11.2011 21:40 7,7 C 91 % 1024,2 hPa 0,0 mm 9,7 km/h (2 Bft) W-SW 247 0 min 0 UV-I 0 W/m 22,5 km/h (4 Bft)
25.11.2011 21:50 7,7 C 91 % 1024,3 hPa 0,0 mm 9,7 km/h (2 Bft) W-SW 247 0 min 0 UV-I 0 W/m 19,3 km/h (3 Bft)
25.11.2011 22:00 7,8 C 91 % 1024,4 hPa 0,0 mm 6,4 km/h (2 Bft) SW 225 0 min 0 UV-I 0 W/m 22,5 km/h (4 Bft)
25.11.2011 22:10 7,8 C 90 % 1024,5 hPa 0,0 mm 6,4 km/h (2 Bft) W-SW 247 0 min 0 UV-I 0 W/m 19,3 km/h (3 Bft)
25.11.2011 22:20 7,8 C 90 % 1024,6 hPa 0,0 mm 8,0 km/h (2 Bft) W-SW 247 0 min 0 UV-I 0 W/m 20,9 km/h (4 Bft)
25.11.2011 22:30 7,8 C 90 % 1024,5 hPa 0,0 mm 8,0 km/h (2 Bft) W-SW 247 0 min 0 UV-I 0 W/m 22,5 km/h (4 Bft)
25.11.2011 22:40 7,7 C 89 % 1024,6 hPa 0,0 mm 9,7 km/h (2 Bft) W-SW 247 0 min 0 UV-I 0 W/m 20,9 km/h (4 Bft)
25.11.2011 22:50 7,7 C 89 % 1024,4 hPa 0,0 mm 6,4 km/h (2 Bft) W-SW 247 0 min 0 UV-I 0 W/m 20,9 km/h (4 Bft)
25.11.2011 23:00 7,8 C 89 % 1024,5 hPa 0,0 mm 9,7 km/h (2 Bft) W-SW 247 0 min 0 UV-I 0 W/m 24,1 km/h (4 Bft)
25.11.2011 23:10 7,8 C 89 % 1024,6 hPa 0,0 mm 6,4 km/h (2 Bft) W-SW 247 0 min 0 UV-I 0 W/m 19,3 km/h (3 Bft)
25.11.2011 23:20 7,8 C 88 % 1024,6 hPa 0,0 mm 8,0 km/h (2 Bft) W 270 0 min 0 UV-I 0 W/m 22,5 km/h (4 Bft)
25.11.2011 23:30 7,8 C 88 % 1024,7 hPa 0,0 mm 9,7 km/h (2 Bft) W-SW 247 0 min 0 UV-I 0 W/m 22,5 km/h (4 Bft)
25.11.2011 23:40 7,9 C 88 % 1024,8 hPa 0,0 mm 9,7 km/h (2 Bft) W-SW 247 0 min 0 UV-I 0 W/m 24,1 km/h (4 Bft)
25.11.2011 23:50 8,0 C 88 % 1024,6 hPa 0,0 mm 8,0 km/h (2 Bft) SW 225 0 min 0 UV-I 0 W/m 24,1 km/h (4 Bft)
_ Min-Zeit 07:30 12:20 14:20 - 00:00 - - - - - 11:00
Minimum _ 2,2 C 65 % 1021,6 hPa - 0,0 km/h (0 Bft) - - - - - 0,0 km/h (0 Bft)
_ Max-Zeit 12:40 18:20 00:00 14:40 18:20 - - 10:20 11:50 12:00 17:30
Maximum _ 10,9 C 91 % 1027,4 hPa 0,3 mm 11,3 km/h
W (2 Bft)
- - 10 min 1 UV-I 275 W/m 29,0 km/h
W (5 Bft)
Durchschnitt _ 6,2 C 83 % 1024,2 hPa #1,3 mm 3,2 km/h (1 Bft) W-SW - #1:20 h 1 UV-I 89 W/m 11,2 km/h (2 Bft)